Lid_Strength_Index
9 9 10 9 8 8 8 9 10 13 13 10 10 7 6 6 6 7 7 6 7 7 8 6 4 3 3 2 2 2 1 1 1 1 0 -0 -0 0
9 9 9 8 8 8 8 8 9 11 13 10 10 9 8 7 7 7 7 6 7 7 7 7 5 4 3 4 3 3 2 2 2 2 1 0 0 0
8 9 9 9 9 9 9 9 9 10 12 12 11 10 10 9 8 8 8 8 7 8 8 7 7 6 4 5 5 4 4 3 3 3 3 2 1 0
9 9 9 8 9 9 9 9 9 9 11 14 12 12 12 11 9 9 8 7 7 6 6 7 7 6 8 7 6 5 5 5 4 4 4 3 3 1
10 9 9 9 10 10 10 10 10 10 11 13 14 12 12 11 11 9 8 9 7 5 6 6 6 6 6 6 6 7 6 6 6 6 6 5 5 4
9 8 8 9 10 10 10 11 11 13 13 14 14 14 13 12 12 12 11 10 10 8 6 4 4 6 7 7 7 7 7 7 7 7 7 8 7 6
10 8 8 8 8 10 11 13 13 14 14 14 14 14 14 14 14 13 12 11 11 10 9 3 2 4 5 7 6 7 7 7 7 7 8 9 8 8
11 10 10 9 9 9 11 11 12 14 14 14 15 16 15 15 14 14 14 14 15 10 8 7 1 2 2 4 7 8 8 8 7 7 7 7 8 8
12 12 11 10 10 11 12 12 12 12 12 14 15 15 16 15 14 14 14 14 14 12 12 12 5 3 3 4 8 8 9 8 8 8 9 9 9 9
12 12 12 11 11 12 13 14 13 13 13 13 13 14 14 13 13 13 13 13 13 11 10 13 9 4 4 4 8 8 8 9 9 9 9 10 10 10
12 12 12 12 11 11 13 14 14 14 12 11 12 12 12 12 12 13 14 15 15 13 10 9 8 9 9 8 7 9 9 9 9 9 10 10 10 10
13 12 11 12 11 11 13 13 14 14 14 14 14 13 13 13 13 13 14 16 15 14 10 11 11 10 11 14 13 9 9 10 10 10 10 10 11 8
13 13 13 12 11 11 11 13 14 13 14 14 15 14 15 15 14 14 13 14 14 14 11 12 12 11 11 13 14 14 10 12 10 11 11 10 11 9
14 13 13 11 11 12 12 12 12 14 14 15 16 16 16 16 15 15 13 13 12 12 11 12 14 14 11 13 13 14 14 14 13 13 12 11 12 11
12 13 12 11 12 12 12 12 13 14 15 16 17 16 16 15 15 15 13 12 12 11 11 13 14 14 13 13 13 15 14 15 14 13 13 13 13 12
13 13 13 12 13 13 12 12 13 14 15 16 16 16 16 16 16 15 15 14 14 14 13 14 14 14 15 12 13 14 14 14 15 13 13 13 13 12
14 13 14 14 14 13 13 13 14 15 16 16 16 16 17 17 17 16 16 16 16 16 17 14 14 15 15 14 13 12 13 14 14 14 14 15 14 13
14 15 15 14 14 14 14 15 15 16 16 16 17 17 18 18 18 18 17 17 18 17 17 15 15 15 15 14 13 13 14 14 15 15 14 15 15 14
16 15 15 15 14 14 14 15 16 16 16 17 17 18 19 19 19 19 19 19 19 18 17 16 16 18 18 17 15 14 14 14 15 15 15 15 15 16
15 15 15 14 14 14 15 15 16 16 17 17 18 19 19 20 20 19 19 20 19 19 18 17 17 17 18 19 17 15 14 14 14 15 16 17 16 16
15 15 14 14 14 14 15 15 16 17 18 18 19 19 20 20 20 19 19 19 19 19 19 18 17 15 15 15 16 16 15 15 14 15 15 16 17 16
15 15 15 14 14 14 15 16 16 17 18 19 20 20 20 20 21 20 19 19 20 19 19 17 16 15 15 16 17 15 16 15 15 15 15 15 16 17
15 15 15 14 14 14 15 16 16 17 18 20 20 20 20 21 20 19 19 19 19 19 19 18 17 16 16 16 17 16 15 15 16 16 16 15 15 16